Location: Detroit
(42.3310°N, 83.0460°W)
Time: 15:18:37
(UTC-05:00)

X-37B - Pass Details

Date: 07 December 2021
Orbit: 334 x 337 km, 45.0° (Epoch: 11 January)

Event Time Altitude Azimuth Distance (km) Brightness Sun altitude
Rises 18:17:32 0° 232° (SW) 2,094 5.7 -13.9°
Reaches altitude 10° 18:19:36 10° 225° (SW) 1,260 4.2 -14.3°
Maximum altitude 18:22:16 40° 153° (SSE) 510 1.1 -14.8°
Enters shadow 18:22:58 32° 115° (ESE) 594 1.1 -14.9°
